Regional Weather Roundup
Issued by NWS

Home | Current Version | Previous Version | Graphics & Text | Print | Product List | Glossary On
Versions: 1 2 3 4 5 6 7 8 9 10 11 12 13 14 15 16 17 18 19 20 21 22 23 24 25 26 27 28 29 30 31 32 33 34 35 36 37 38 39 40 41 42 43 44 45 46 47 48 49
000
ASUS45 KPSR 262010
RWRAZ

ARIZONA HOURLY REGIONAL WEATHER ROUNDUP
NATIONAL WEATHER SERVICE PHOENIX AZ
100 PM MST FRI MAY 26 2017

NOTE: FAIR INDICATES FEW OR NO CLOUDS BELOW 12,000 FEET WITH NO
SIGNIFICANT WEATHER AND/OR OBSTRUCTIONS TO VISIBILITY.

AZZ001>003-036-262100-
NORTHWEST ARIZONA

CITY           SKY/WX    TMP DP  RH WIND       PRES   REMARKS
BULLHEAD CITY  SUNNY     90  25   9 S15G26    29.75F
KINGMAN        SUNNY     83  26  12 SW23G36   29.88S
$$

AZZ004>008-015-016-018-262100-
NORTH CENTRAL ARIZONA

CITY           SKY/WX    TMP DP  RH WIND       PRES   REMARKS
GRAND CANYON   SUNNY     70  22  16 SW10G33   30.03R
WILLIAMS       SUNNY     68  16  13 S20G29    30.05F
PRESCOTT       SUNNY     74  15  10 VRB6G22   30.00R
FLAGSTAFF      SUNNY     66  10  11 SW25G37   30.08S
PAYSON         SUNNY     73  21  14 S9G23     30.05S
PAGE           SUNNY     84  16   8 S10G17    29.81F
$$

AZZ009>014-017-262100-
NORTHEAST ARIZONA

CITY           SKY/WX    TMP DP  RH WIND       PRES   REMARKS
WINSLOW        SUNNY     81  10   7 SW15G31   29.95F
SAINT JOHNS    SUNNY     79  13   8 SW25G31   30.00F
WINDOW ROCK    SUNNY     73  13  10 W24G39    30.04F
SHOW LOW       SUNNY     72  14  11 SW25G32   30.07F
$$

AZZ540-542>544-546-548-262100-
GREATER PHOENIX AREA

CITY           SKY/WX    TMP DP  RH WIND       PRES   REMARKS
PHOENIX        SUNNY     90  26  10 SW7       29.81F
BUCKEYE        SUNNY     90  27  10 S14       29.83F
GLENDALE       SUNNY     91  28  10 S10G21    29.84F
LUKE AFB       MOSUNNY   90  28  11 S15       29.82S
DEER VALLEY    SUNNY     87  25  10 SW16G22   29.84S
SCOTTSDALE     SUNNY     89  23   9 S9G17     29.85F
MESA-GATEWAY   SUNNY     91  21   8 MISG      29.84F
CHANDLER       SUNNY     91  19   7 MISG      29.83F
$$

AZZ539-553-262100-
SOUTHWEST MARICOPA COUNTY AND PINAL COUNTY

CITY           SKY/WX    TMP DP  RH WIND       PRES   REMARKS
CASA GRANDE    SUNNY     91  20   7 SW16G24   29.84F
GILA BEND      FAIR      91  24   9 S15       29.81S
$$

AZZ503-504-507>509-262100-
SOUTHEAST ARIZONA

CITY           SKY/WX    TMP DP  RH WIND       PRES   REMARKS
TUCSON         SUNNY     93  20   7 W15G26    29.91F
DAVIS-MONTHAN  MOSUNNY   92  20   7 SW15G25   29.90F
NOGALES        SUNNY     88  23   9 S18G37    30.00F
SIERRA VISTA   SUNNY     86  18   8 SW24G33   30.04S
DOUGLAS        SUNNY     88  26  10 SW21G36   30.00F
SAFFORD        SUNNY     93  18   6 W16G23    29.87F
$$

AZZ532-262100-
SOUTHWEST ARIZONA

CITY           SKY/WX    TMP DP  RH WIND       PRES   REMARKS
YUMA           SUNNY     84  40  21 CALM      29.82F
$$

CAZ041-043-047-048-061-525>527-560>570-262100-
SOUTHERN CALIFORNIA

CITY           SKY/WX    TMP DP  RH WIND       PRES   REMARKS
DOWNTOWN L.A.  CLOUDY    69  53  56 VRB3      29.99R
L.A. AIRPORT   PTSUNNY   67  53  61 SW9       30.00R
SAN DIEGO      PTSUNNY   69  51  52 W12G22    30.02R
BURBANK        CLOUDY    66  48  52 S7        29.99S
ONTARIO        PTSUNNY   72  45  37 W13       29.98S
RIVERSIDE      MOSUNNY   71  46  40 W9G17     29.98S
PALM SPRINGS   SUNNY     83  42  23 NW14G21   29.84S
EL CENTRO NAS  SUNNY     87  31  13 S6        29.81F
IMPERIAL       LGT RAIN  87  40  19 S8G16     29.80F
BLYTHE         SUNNY     87  31  13 SW13G25   29.80S
NEEDLES        SUNNY     92  26   9 SW15G23   29.78F
$$

NVZ020-UTZ003-262100-
SOUTHERN NEVADA-UTAH

CITY           SKY/WX    TMP DP  RH WIND       PRES   REMARKS
LAS VEGAS      SUNNY     86  22   9 VRB7      29.76S
SALT LAKE CITY MOSUNNY   66  40  38 N8G18     29.89R
$$

NMZ009-TXZ055-262100-
NEW MEXICO-WEST TEXAS

CITY           SKY/WX    TMP DP  RH WIND       PRES   REMARKS
ALBUQUERQUE    MOSUNNY   81  12   7 SW13G21   29.98F
EL PASO        MOSUNNY   91  27  10 SW21G29   29.97F
$$


........................KEY........................
SKY/WX - SKY CONDITION/WEATHER
TMP    - TEMPERATURE IN FAHRENHEIT
DP     - DEW POINT IN FAHRENHEIT
RH     - RELATIVE HUMIDITY IN PERCENT
WIND   - DIRECTION AND SPEED IN MILES PER HOUR (MPH)
VRB    - VARIABLE WIND DIRECTION
PRES   - MEAN SEA LEVEL PRESSURE IN INCHES OF MERCURY
         F - FALLING PRESSURE   R - RISING PRESSURE
         S - STEADY PRESSURE
VSB    - VISIBILITY IN MILES
HX     - HEAT INDEX IN FAHRENHEIT
WCI    - WIND CHILL INDEX IN FAHRENHEIT
TC     - TEMPERATURE IN CELSIUS WHICH IS ALSO KNOWN AS
         TEMPERATURE IN CENTIGRADE
AFB    - AIR FORCE BASE
         LUKE AFB IS LUKE AIR FORCE BASE
         DAVIS-MONTHAN IS DAVIS-MONTHAN AIR FORCE BASE
NAS    - NAVAL AIR STATION
         EL CENTRO NAS IS EL CENTRO NAVAL AIR STATION
N/A    - NOT AVAILABLE





USA.gov is the U.S. government's official web portal to all federal, state and local government web resources and services.